Total_Precipitation_Accumulation
0.83 0.85 0.80 0.83 0.75 0.73 0.83 0.90 0.91 0.94 0.84 0.72 0.67 0.66 0.73 0.67 0.65 0.72 0.90 1.11 1.48 1.78 1.83 1.65 1.45 1.35 1.31 1.30 1.47 1.69 1.99 2.15 2.00 1.92 1.75 1.64 1.84 1.95 1.59 1.45 1.44 1.40 1.49
0.87 0.92 0.87 0.87 0.84 0.78 0.82 0.99 0.94 0.98 0.96 0.88 0.73 0.69 0.72 0.69 0.66 0.69 0.80 1.05 1.25 1.44 1.74 1.91 1.73 1.56 1.41 1.36 1.44 1.66 2.02 2.09 1.82 1.77 1.75 1.69 1.87 1.94 1.64 1.49 1.40 1.30 1.43
0.83 0.86 0.87 0.85 0.85 0.86 0.86 0.91 0.96 1.02 0.92 0.87 0.82 0.77 0.74 0.70 0.62 0.69 0.71 0.81 0.83 0.99 1.30 1.61 1.78 1.73 1.64 1.58 1.57 1.76 2.02 1.98 1.75 1.74 1.81 1.76 1.73 1.79 1.73 1.57 1.44 1.32 1.36
0.89 0.89 0.93 0.94 0.99 1.03 1.00 1.01 1.06 1.08 1.03 1.01 1.00 0.96 0.79 0.80 0.71 0.70 0.69 0.72 0.78 0.75 0.89 1.06 1.32 1.53 1.70 1.78 1.91 2.12 2.03 1.86 1.70 1.68 1.78 1.69 1.62 1.71 1.73 1.65 1.43 1.32 1.30
0.95 1.06 1.09 1.15 1.13 1.15 1.17 1.13 1.15 1.08 1.09 1.10 1.03 1.01 0.90 0.89 0.84 0.72 0.78 0.80 0.80 0.76 0.80 0.71 0.77 0.89 1.15 1.51 2.02 2.32 2.02 1.89 1.81 1.66 1.64 1.61 1.65 1.78 1.75 1.56 1.38 1.27 1.26
1.25 1.40 1.48 1.42 1.42 1.42 1.42 1.37 1.45 1.34 1.16 1.16 1.09 1.03 0.92 0.83 0.89 0.87 0.85 0.85 0.89 0.86 0.80 0.70 0.66 0.55 0.66 1.02 1.64 2.06 2.01 1.95 1.84 1.77 1.68 1.64 1.71 1.80 1.72 1.58 1.44 1.39 1.35
1.63 1.75 1.69 1.77 1.80 1.67 1.68 1.72 1.79 1.73 1.47 1.33 1.41 1.31 1.04 0.81 0.87 0.86 0.83 0.88 0.94 1.05 1.07 0.94 0.79 0.71 0.67 0.74 1.11 1.60 1.95 1.99 2.01 1.88 1.78 1.75 1.72 1.71 1.70 1.64 1.62 1.56 1.51
1.85 1.89 1.98 2.06 2.10 2.09 2.05 1.94 2.02 2.11 1.85 1.63 1.75 2.04 1.64 1.23 0.88 0.71 0.80 0.85 0.95 1.18 1.25 1.07 0.87 0.80 0.79 0.87 0.78 1.03 1.45 1.86 2.03 2.03 1.94 1.88 1.87 1.87 1.81 1.62 1.57 1.60 1.63
2.08 2.11 2.17 2.24 2.25 2.11 2.10 2.19 2.28 2.61 2.42 2.07 1.89 2.15 1.95 1.62 1.32 0.91 0.84 0.89 0.98 1.15 1.27 1.28 1.16 1.09 0.99 1.01 0.96 0.78 0.96 1.37 1.74 2.02 2.09 2.03 1.92 2.07 2.16 1.86 1.59 1.52 1.50
2.02 2.13 2.14 2.14 2.11 2.06 2.14 2.19 2.22 2.60 2.78 2.49 2.17 1.83 1.62 1.60 1.66 1.36 1.00 0.96 1.04 1.06 1.17 1.25 1.19 1.25 1.23 1.23 1.20 0.94 0.88 1.10 1.40 1.84 2.17 2.35 2.14 1.95 1.93 1.92 1.80 1.60 1.43
1.88 1.92 1.94 2.03 2.06 2.10 2.16 2.33 2.43 2.64 2.66 2.67 2.49 2.31 2.10 1.81 1.47 1.51 1.43 1.18 1.15 1.07 1.15 1.28 1.31 1.39 1.40 1.44 1.54 1.26 0.99 0.89 1.07 1.49 1.99 2.41 2.43 2.23 2.01 1.89 1.83 1.79 1.55
1.87 1.80 1.77 1.83 1.95 2.12 2.18 2.27 2.41 2.63 2.72 2.81 2.74 2.48 2.39 2.23 1.93 1.80 1.55 1.41 1.40 1.21 1.18 1.21 1.25 1.38 1.52 1.60 1.56 1.65 1.34 0.94 0.84 1.11 1.45 1.91 2.34 2.49 2.41 2.28 2.13 2.09 1.92
1.58 1.60 1.68 1.77 1.90 2.02 2.11 2.22 2.36 2.40 2.51 2.74 2.76 2.60 2.39 2.17 2.14 2.04 1.93 1.61 1.44 1.27 1.25 1.24 1.19 1.25 1.27 1.54 1.66 1.72 1.41 1.07 0.82 0.83 1.00 1.22 1.56 1.99 2.37 2.45 2.42 2.48 2.46
1.48 1.41 1.46 1.56 1.79 1.98 2.07 2.16 2.17 2.14 2.19 2.38 2.38 2.45 2.42 2.13 2.07 1.98 1.97 2.04 1.76 1.57 1.41 1.23 1.12 1.16 1.19 1.38 1.67 1.75 1.32 1.13 0.92 0.80 0.83 1.02 1.11 1.22 1.58 2.12 2.41 2.53 2.68
1.29 1.23 1.25 1.29 1.42 1.65 1.91 2.06 2.00 1.92 1.88 2.04 2.10 2.19 2.30 2.32 2.23 2.14 2.11 2.16 2.10 1.84 1.64 1.43 1.21 1.10 1.16 1.27 1.66 1.61 1.39 1.21 1.09 0.94 0.86 0.92 0.91 0.95 1.06 1.35 1.65 1.79 1.96
1.09 1.09 1.09 1.14 1.27 1.38 1.58 1.81 1.91 1.85 1.82 1.87 1.98 2.10 2.24 2.33 2.38 2.19 2.15 2.12 1.98 1.88 1.72 1.42 1.21 1.13 1.19 1.17 1.51 1.54 1.50 1.48 1.24 1.07 1.00 0.97 0.97 0.90 0.92 1.04 1.12 1.14 1.11
0.89 0.92 1.08 1.13 1.19 1.25 1.43 1.69 1.87 1.87 1.79 1.79 1.78 1.87 2.04 2.12 2.34 2.31 2.23 2.12 1.99 1.82 1.68 1.52 1.32 1.15 1.20 1.25 1.35 1.47 1.48 1.38 1.19 1.14 1.02 0.98 0.95 0.94 0.91 0.98 1.10 1.02 0.92
0.64 0.76 0.90 0.94 0.97 1.00 1.18 1.47 1.67 1.71 1.67 1.58 1.57 1.69 1.91 2.08 2.29 2.39 2.34 2.21 2.11 1.98 1.85 1.78 1.60 1.39 1.28 1.31 1.40 1.52 1.52 1.46 1.36 1.35 1.21 1.09 1.01 0.95 0.94 0.94 1.00 1.07 1.01
0.65 0.77 0.86 0.91 0.93 0.98 1.01 1.11 1.27 1.39 1.37 1.31 1.34 1.41 1.47 1.67 1.96 2.14 2.16 2.18 2.21 2.19 2.14 1.98 1.77 1.64 1.50 1.39 1.46 1.51 1.51 1.57 1.44 1.43 1.41 1.32 1.24 1.16 1.07 1.02 0.99 1.01 1.05
0.60 0.68 0.76 0.82 0.89 0.95 0.95 0.96 0.98 1.05 1.06 1.11 1.17 1.22 1.26 1.31 1.54 1.72 1.81 2.00 2.23 2.24 2.26 2.18 1.96 1.78 1.65 1.52 1.58 1.67 1.75 1.74 1.58 1.37 1.36 1.30 1.34 1.30 1.19 1.03 0.96 0.96 1.00
0.51 0.58 0.65 0.69 0.74 0.83 0.92 0.95 0.82 0.77 0.84 0.95 0.98 0.96 0.98 1.05 1.19 1.29 1.36 1.72 2.06 2.24 2.23 2.18 2.05 1.95 1.69 1.56 1.43 1.43 1.65 1.90 1.87 1.77 1.64 1.39 1.34 1.26 1.19 1.13 1.02 0.96 0.97
0.48 0.53 0.52 0.56 0.68 0.72 0.86 0.84 0.67 0.65 0.68 0.78 0.87 0.87 0.77 0.76 0.81 0.87 0.96 1.14 1.41 1.66 1.94 2.12 2.04 1.85 1.64 1.54 1.49 1.50 1.56 1.69 1.84 1.73 1.76 1.75 1.65 1.59 1.49 1.35 1.32 1.23 1.13
0.45 0.47 0.46 0.48 0.53 0.67 0.72 0.58 0.55 0.57 0.64 0.69 0.75 0.82 0.75 0.65 0.72 0.76 0.86 0.93 0.95 1.02 1.31 1.66 1.78 1.73 1.80 1.68 1.64 1.57 1.54 1.61 1.66 1.63 1.78 1.83 1.79 1.75 1.67 1.64 1.71 1.56 1.38
0.53 0.52 0.53 0.52 0.52 0.58 0.57 0.47 0.50 0.52 0.57 0.62 0.70 0.79 0.85 0.78 0.77 0.88 0.88 0.91 0.87 0.83 1.03 1.04 1.20 1.50 1.68 1.77 1.73 1.81 1.98 1.94 1.80 1.66 1.62 1.67 1.59 1.57 1.58 1.58 1.69 1.61 1.50
0.51 0.54 0.58 0.58 0.53 0.50 0.52 0.44 0.46 0.52 0.56 0.61 0.63 0.68 0.76 0.74 0.88 0.97 0.97 1.10 1.08 0.96 1.09 1.14 1.18 1.21 1.33 1.49 1.61 1.69 1.78 1.84 1.82 1.71 1.52 1.39 1.34 1.34 1.39 1.40 1.41 1.48 1.47
0.30 0.40 0.43 0.46 0.49 0.48 0.60 0.48 0.49 0.52 0.61 0.70 0.71 0.69 0.83 0.83 0.89 0.89 0.87 1.11 1.13 1.01 0.93 1.00 1.01 0.97 0.92 1.02 1.24 1.41 1.61 1.71 1.69 1.60 1.36 1.23 1.20 1.23 1.23 1.09 1.01 1.05 1.06